GORIZONT 25 1 21922U 92017A 09183.01998882 -.00000334 00000-0 10000-3 0 2157 2 21922 11.5297 42.2268 0027419 299.9351 59.7701 0.99849125 63092 GORIZONT 26 1 22041U 92043A 09183.23359750 .00000045 00000-0 10000-3 0 8512 2 22041 11.3905 43.5993 0029770 103.2475 257.0528 0.99241942 62029 GORIZONT 27 1 22245U 92082A 09183.93487195 -.00000252 00000-0 10000-3 0 4611 2 22245 11.3016 44.7134 0013480 227.0502 132.8150 1.00218142 65107 GORIZONT 28 1 22880U 93069A 09184.34403712 -.00000332 00000-0 10000-3 0 1987 2 22880 10.8238 48.0287 0032903 358.8509 141.2064 0.99657782 57427 GORIZONT 29 1 22907U 93072A 09182.97925447 -.00000336 00000-0 10000-3 0 6734 2 22907 10.7982 48.1399 0011926 206.1415 153.7651 1.00155394 57177 GORIZONT 30 1 23108U 94030A 09183.40933225 -.00000158 00000-0 10000-3 0 4982 2 23108 10.6452 49.4527 0001700 137.4320 222.5467 1.00287091 55380 GORIZONT 31 1 23775U 96005A 09182.37968603 -.00000091 00000-0 10000-3 0 8462 2 23775 9.6004 55.2262 0020678 66.9819 293.1801 0.99899334 49178 GORIZONT 32 1 23880U 96034A 09183.66467036 -.00000124 00000-0 10000-3 0 2414 2 23880 9.4674 56.3055 0001473 13.2682 76.6062 1.00269236 47999 GORIZONT 33 1 26372U 00029A 09183.37187746 .00000057 00000-0 10000-3 0 6370 2 26372 6.7175 65.3630 0002247 339.1784 20.6817 1.00222913 33326